Wind_Speed
8 8 8 9 11 12 13 13 12 12 13 13 12 12 12 12 13 13 14 13 13 13 13 14 14 15 15 15 16 17 17 18 18 18 19 19 19 19 19 19 18 18 19 19
9 8 9 10 11 12 12 12 11 11 12 14 13 13 12 13 13 13 14 14 13 13 13 14 14 15 15 15 16 17 18 18 19 19 18 19 19 19 19 19 19 19 18 18
10 10 11 11 12 12 12 12 11 11 12 14 14 13 13 14 14 14 13 13 13 14 13 13 14 13 14 15 16 17 17 18 19 19 19 19 19 19 18 19 18 18 17 17
10 11 12 12 12 13 13 12 12 12 13 14 15 14 13 14 14 14 13 13 14 14 13 13 14 13 13 15 16 16 16 17 19 19 20 19 18 19 18 18 18 18 17 18
10 11 12 12 12 13 12 11 12 13 13 13 14 14 12 14 14 13 13 13 13 13 13 13 14 14 14 15 16 17 17 18 19 19 20 19 19 19 19 19 18 18 18 19
11 11 11 11 12 12 12 12 12 13 13 13 13 14 12 13 13 12 11 12 13 13 14 14 14 14 15 16 17 18 19 20 20 20 20 19 19 19 20 20 19 19 19 18
12 12 12 12 12 12 12 12 13 14 14 13 12 14 13 13 12 13 13 13 14 14 14 14 14 15 16 17 18 19 20 20 21 21 20 19 19 20 20 20 19 18 18 18
12 12 12 12 12 11 11 12 13 14 14 13 13 13 13 13 12 12 13 14 15 15 15 15 15 15 16 17 18 19 20 20 20 20 19 19 19 20 20 20 19 18 18 19
13 12 12 13 12 12 12 13 13 15 15 15 14 14 13 12 12 12 13 14 14 15 15 15 15 15 16 18 18 19 19 19 19 19 19 18 19 19 20 19 19 19 19 19
15 14 13 13 14 13 14 13 14 15 16 15 15 14 13 12 13 13 14 14 15 15 15 16 16 16 17 17 18 18 18 18 18 19 18 18 18 19 19 18 18 18 18 17
16 15 14 15 15 14 14 14 15 16 16 17 16 14 14 14 13 14 14 15 15 16 15 15 16 16 18 18 18 19 18 18 18 18 18 18 19 19 19 18 18 18 18 18
16 16 16 16 16 16 15 15 16 16 16 17 17 15 15 14 13 13 14 15 16 15 15 15 16 17 19 18 18 18 18 18 17 18 17 18 18 19 19 18 18 18 18 18
17 18 18 18 18 18 18 17 17 17 17 17 17 16 15 15 14 14 14 15 15 15 15 15 16 18 18 17 17 18 17 17 17 18 18 17 18 19 18 18 18 18 18 18
18 19 19 19 18 17 18 18 18 18 18 18 17 17 16 16 16 15 15 15 14 15 16 17 18 17 17 17 17 17 17 18 18 18 18 18 18 18 18 18 18 18 17 18
20 20 20 19 19 18 19 19 19 18 19 20 18 17 16 16 16 16 16 15 16 17 16 17 17 17 17 17 16 17 17 18 18 19 18 18 19 18 18 18 18 18 18 18
23 23 22 20 20 20 20 20 19 19 20 20 19 17 17 16 17 16 16 16 17 17 17 17 17 17 16 16 16 17 18 18 18 18 18 18 19 19 19 19 19 18 18 18
25 24 23 22 21 21 21 21 20 20 20 20 19 18 17 18 17 17 17 17 17 17 17 17 17 17 15 15 16 17 17 18 18 18 18 18 19 19 19 20 20 20 19 19
25 25 24 23 23 23 23 23 22 23 22 22 20 19 19 19 18 18 18 17 17 17 17 17 17 16 16 16 16 17 18 18 18 19 19 19 20 20 20 20 20 20 20 19
25 25 25 24 24 24 24 23 23 23 23 23 22 21 20 19 19 19 18 18 17 17 18 17 17 16 17 16 17 18 18 18 19 19 19 20 20 21 21 20 20 20 20 20
27 26 26 26 26 26 25 25 25 24 23 22 22 22 21 20 20 19 19 18 18 18 18 18 17 17 18 17 18 18 19 18 19 19 19 20 21 21 21 21 21 20 20 21
30 29 28 27 27 26 25 25 25 24 23 23 22 22 22 22 22 21 21 20 20 20 19 19 18 18 18 18 18 18 18 19 19 20 21 22 22 22 22 22 21 21 22 22
29 30 29 29 28 27 26 25 25 24 23 23 23 23 23 23 23 23 22 22 22 21 20 20 19 18 18 19 19 19 19 20 20 21 21 22 22 23 22 22 22 22 22 23
30 30 29 29 28 28 27 26 26 25 25 24 24 25 24 23 23 23 23 22 22 21 20 20 19 19 19 20 20 20 20 21 21 22 22 22 23 23 22 22 22 22 22 22
31 30 29 28 28 28 28 27 27 27 26 25 25 25 24 24 24 23 23 21 20 20 20 20 20 20 20 20 21 21 21 22 22 22 22 22 23 23 23 23 23 23 23 23
31 31 30 29 28 28 27 28 28 27 26 26 25 25 25 25 24 22 22 21 21 21 21 20 20 20 20 21 21 22 23 23 23 23 23 23 24 24 24 24 24 24 25 25
30 31 31 30 30 30 28 28 28 27 26 26 26 26 26 25 23 21 21 21 21 21 21 21 21 21 21 21 22 22 22 23 23 24 24 24 25 24 24 24 24 25 25 25
Wind_Direction
237 244 250 251 245 244 247 253 257 259 255 258 264 268 268 270 281 284 287 291 299 309 315 318 322 322 320 320 321 324 321 319 319 317 312 311 306 304 302 299 295 292 292 285
236 241 244 251 250 248 251 255 256 257 261 265 269 274 275 277 285 290 292 291 293 306 311 316 319 323 323 321 322 323 321 319 320 321 318 315 313 310 307 302 300 299 297 290
236 237 243 248 249 250 252 254 259 264 264 270 275 278 280 283 286 294 297 295 298 303 306 313 317 319 319 318 320 321 323 322 321 320 319 316 315 312 308 303 302 301 299 296
235 235 243 246 249 251 251 255 263 269 273 275 275 277 281 286 290 292 294 297 302 303 304 309 311 315 317 318 320 322 321 321 320 320 318 316 315 313 310 305 302 300 297 297
237 238 243 245 250 254 258 260 266 272 276 277 278 281 287 287 292 290 291 296 298 302 306 309 311 314 317 317 319 321 322 322 321 321 319 317 314 313 311 309 307 304 301 298
236 239 246 247 247 251 256 262 271 276 279 280 283 285 288 289 291 289 290 296 301 301 304 309 310 314 317 316 318 320 322 324 324 324 321 318 315 313 312 310 309 306 304 301
242 245 249 248 249 251 256 265 273 277 279 284 286 287 291 292 290 290 290 293 298 300 303 306 309 313 316 316 319 321 321 322 324 323 322 318 315 314 314 314 313 310 307 304
247 248 252 254 255 259 261 267 275 281 283 284 287 293 296 294 296 293 289 290 295 299 302 305 307 311 315 316 318 320 320 321 322 322 322 320 317 317 317 316 315 314 312 309
247 249 251 253 256 262 267 271 276 279 283 285 289 296 298 295 297 298 295 294 298 302 303 304 307 311 314 316 318 319 322 322 322 324 323 322 320 320 319 318 317 316 315 313
248 249 250 250 253 261 266 270 274 278 282 285 290 295 299 298 296 297 298 298 299 303 305 306 310 314 316 317 319 319 321 322 322 323 325 325 323 323 323 321 320 321 321 320
248 249 249 252 255 261 264 268 272 276 279 285 288 292 295 293 291 294 298 301 302 305 308 311 312 315 316 316 319 321 320 320 323 326 329 328 326 325 324 324 322 322 323 321
248 249 249 254 258 260 264 268 272 275 281 285 288 289 289 289 288 291 297 300 301 302 309 313 313 316 318 318 318 320 321 323 325 324 326 327 328 330 329 327 326 325 325 323
247 249 250 252 257 261 265 268 270 275 279 283 286 288 287 287 285 288 294 297 296 301 310 314 316 320 320 319 318 321 324 323 324 325 328 328 330 331 330 328 327 326 325 324
249 250 253 256 261 263 264 267 269 273 276 280 285 286 284 285 284 286 289 293 298 304 308 312 316 319 322 322 320 323 323 323 324 325 327 328 329 330 330 328 327 325 324 324
253 255 255 256 258 259 262 265 269 272 275 278 282 284 284 284 285 285 288 291 297 302 305 309 315 318 321 322 322 322 325 324 324 324 327 329 329 329 328 328 327 325 323 321
253 256 257 258 260 260 262 265 268 270 272 275 280 285 284 284 285 286 289 292 295 299 302 307 313 316 318 320 321 323 323 321 322 325 326 327 328 329 329 328 327 325 323 321
255 255 257 259 260 261 261 263 265 268 271 274 278 282 284 285 286 286 288 290 294 295 297 303 311 316 318 320 320 324 324 323 324 324 324 324 325 326 327 327 325 324 323 322
255 257 257 259 259 260 262 263 266 268 271 272 275 278 281 283 283 285 289 292 294 296 299 305 311 313 317 319 319 322 322 322 323 323 323 324 323 323 323 323 322 322 320 320
253 255 257 260 261 262 262 264 267 268 269 269 272 275 276 277 280 283 285 287 290 294 298 301 304 305 311 314 316 318 318 319 320 321 321 321 321 321 321 320 320 320 319 319
253 254 256 259 260 261 263 265 267 268 268 269 271 272 274 276 279 281 282 285 290 293 296 299 301 303 307 309 313 315 313 314 315 317 318 319 318 319 318 317 317 318 318 318
254 255 255 258 260 261 263 263 265 265 266 267 269 271 274 276 280 279 280 284 287 289 291 293 296 298 302 305 308 310 312 313 315 316 317 317 318 318 316 316 317 317 317 316
254 255 256 257 258 260 262 264 263 263 263 265 267 272 276 278 279 279 278 279 283 284 287 290 292 294 298 301 305 307 309 311 312 313 314 315 316 315 314 315 315 315 314 314
252 254 255 256 258 260 261 263 263 263 264 266 269 273 276 277 277 277 277 279 279 281 283 286 288 291 295 299 303 306 309 312 313 313 314 314 314 313 311 311 312 312 312 312
252 253 254 255 257 258 259 260 263 263 264 266 269 271 274 275 275 276 276 277 277 276 279 282 285 289 293 298 300 303 305 307 311 313 312 314 314 314 312 312 311 310 311 311
253 253 253 254 257 258 259 259 262 264 264 265 267 268 272 274 274 275 275 275 277 278 279 282 283 287 291 296 298 300 303 306 307 309 309 310 311 311 311 312 311 310 309 310
253 253 254 255 256 256 256 257 258 260 262 264 265 267 269 270 271 273 274 277 279 279 279 281 284 287 290 294 297 299 301 304 307 308 309 309 309 309 310 310 309 309 309 309
Height
5840 5842 5843 5843 5843 5843 5844 5844 5845 5845 5845 5845 5845 5845 5845 5845 5844 5843 5842 5841 5840 5839 5836 5834 5832 5830 5828 5827 5825 5823 5821 5818 5816 5814 5811 5809 5806 5804 5801 5799 5798 5796 5795 5794
5840 5840 5841 5841 5841 5841 5842 5842 5843 5843 5843 5842 5842 5842 5842 5842 5841 5840 5839 5838 5837 5836 5834 5832 5830 5828 5826 5824 5822 5820 5818 5815 5813 5810 5807 5805 5802 5799 5797 5795 5794 5792 5791 5789
5837 5839 5838 5839 5839 5840 5840 5840 5841 5841 5840 5840 5839 5840 5840 5839 5838 5838 5837 5835 5834 5833 5831 5830 5828 5826 5824 5822 5819 5817 5814 5812 5809 5806 5804 5801 5798 5796 5794 5791 5790 5788 5786 5785
5835 5836 5836 5837 5837 5838 5838 5839 5838 5837 5837 5837 5837 5836 5837 5836 5836 5835 5834 5833 5832 5830 5829 5827 5826 5824 5822 5820 5817 5814 5812 5809 5806 5803 5800 5797 5795 5792 5790 5788 5786 5784 5782 5781
5833 5834 5834 5835 5836 5836 5836 5836 5835 5835 5835 5835 5834 5834 5835 5834 5833 5832 5831 5830 5829 5828 5827 5825 5823 5821 5819 5817 5814 5811 5809 5806 5802 5799 5796 5793 5791 5789 5786 5784 5781 5780 5778 5776
5831 5831 5831 5832 5833 5833 5833 5833 5833 5833 5833 5833 5833 5832 5832 5831 5830 5829 5829 5828 5827 5826 5824 5822 5820 5818 5816 5814 5811 5808 5805 5801 5798 5795 5792 5789 5787 5784 5782 5779 5777 5775 5773 5772
5828 5829 5829 5830 5830 5831 5831 5831 5831 5830 5830 5831 5830 5829 5829 5828 5827 5827 5826 5825 5824 5823 5822 5820 5817 5815 5813 5810 5807 5804 5801 5798 5795 5791 5788 5786 5783 5781 5778 5776 5773 5771 5769 5767
5825 5827 5828 5828 5828 5828 5828 5829 5829 5829 5828 5828 5827 5826 5827 5825 5824 5823 5823 5822 5821 5820 5818 5816 5814 5811 5809 5806 5804 5801 5798 5794 5791 5788 5784 5782 5779 5777 5774 5772 5769 5767 5764 5762
5822 5824 5825 5825 5825 5826 5826 5826 5827 5826 5825 5825 5824 5824 5824 5822 5821 5821 5820 5819 5818 5816 5814 5812 5810 5808 5805 5802 5800 5797 5794 5791 5787 5784 5781 5778 5775 5773 5770 5768 5765 5763 5760 5758
5819 5820 5821 5822 5823 5823 5824 5824 5824 5823 5822 5821 5821 5821 5821 5820 5819 5819 5817 5816 5814 5813 5811 5808 5806 5804 5801 5799 5796 5794 5791 5788 5784 5781 5777 5775 5772 5769 5767 5764 5761 5759 5756 5754
5815 5817 5818 5818 5819 5820 5820 5821 5820 5820 5819 5819 5818 5821 5818 5817 5816 5815 5814 5813 5811 5809 5807 5805 5803 5801 5798 5796 5793 5790 5787 5784 5780 5777 5773 5771 5769 5766 5763 5761 5758 5756 5753 5751
5812 5813 5813 5815 5816 5816 5816 5816 5817 5817 5816 5815 5815 5818 5814 5813 5812 5812 5811 5809 5807 5806 5804 5802 5800 5798 5795 5792 5790 5787 5783 5781 5777 5774 5771 5769 5766 5763 5761 5758 5755 5753 5750 5748
5808 5809 5810 5811 5813 5813 5812 5812 5813 5813 5812 5811 5811 5814 5811 5810 5809 5808 5807 5806 5804 5803 5801 5799 5797 5794 5792 5789 5786 5783 5780 5778 5775 5772 5769 5766 5763 5760 5758 5755 5752 5750 5747 5745
5804 5804 5806 5807 5807 5808 5808 5808 5809 5809 5808 5808 5808 5808 5807 5806 5805 5805 5804 5802 5801 5800 5798 5796 5793 5791 5788 5786 5783 5780 5778 5775 5772 5769 5766 5763 5760 5758 5755 5752 5750 5747 5744 5742
5799 5800 5801 5802 5803 5803 5804 5804 5804 5804 5804 5804 5804 5803 5802 5802 5801 5801 5800 5799 5798 5796 5795 5793 5790 5788 5785 5783 5780 5777 5775 5772 5770 5767 5764 5761 5758 5755 5752 5749 5747 5744 5741 5739
5793 5795 5796 5797 5798 5798 5799 5799 5800 5800 5799 5799 5799 5799 5798 5798 5797 5797 5796 5795 5794 5793 5791 5789 5787 5784 5782 5779 5777 5774 5772 5769 5767 5764 5761 5758 5755 5752 5749 5746 5743 5741 5738 5735
5788 5789 5791 5792 5793 5793 5794 5794 5795 5795 5794 5795 5794 5795 5793 5793 5793 5793 5792 5791 5790 5788 5787 5786 5783 5781 5778 5776 5774 5771 5769 5766 5763 5761 5758 5755 5752 5749 5746 5743 5740 5738 5735 5732
5782 5783 5784 5786 5788 5788 5790 5789 5789 5789 5789 5789 5789 5789 5789 5789 5788 5788 5787 5786 5785 5784 5783 5781 5779 5777 5775 5773 5771 5769 5766 5763 5761 5758 5755 5752 5749 5746 5743 5740 5737 5734 5731 5729
5776 5777 5778 5779 5780 5781 5783 5783 5783 5783 5783 5783 5783 5784 5784 5783 5783 5783 5782 5781 5781 5780 5778 5777 5775 5774 5772 5770 5768 5765 5763 5760 5757 5754 5752 5749 5746 5743 5739 5736 5733 5730 5727 5725
5768 5770 5772 5772 5773 5775 5778 5777 5776 5778 5777 5777 5778 5778 5778 5778 5778 5778 5777 5776 5776 5775 5774 5772 5771 5769 5768 5766 5764 5761 5759 5756 5754 5751 5748 5745 5742 5739 5736 5732 5729 5726 5723 5720
5761 5762 5764 5765 5766 5768 5770 5770 5771 5772 5773 5772 5772 5772 5772 5772 5773 5772 5771 5771 5770 5769 5768 5767 5766 5765 5763 5761 5759 5757 5755 5752 5749 5747 5744 5741 5738 5735 5731 5728 5725 5722 5719 5716
5753 5755 5757 5758 5759 5763 5763 5763 5765 5765 5765 5765 5765 5766 5766 5766 5766 5765 5765 5765 5764 5764 5763 5762 5760 5759 5758 5756 5754 5752 5750 5747 5744 5742 5739 5736 5733 5730 5726 5723 5720 5717 5714 5711
5745 5748 5749 5751 5754 5755 5755 5756 5757 5757 5758 5758 5759 5759 5759 5759 5759 5759 5758 5758 5758 5757 5757 5756 5755 5754 5752 5751 5749 5747 5744 5742 5739 5736 5733 5731 5728 5724 5721 5718 5715 5712 5708 5705
5737 5739 5741 5743 5745 5746 5747 5748 5749 5750 5751 5751 5752 5752 5752 5752 5752 5752 5752 5751 5751 5751 5750 5750 5749 5748 5747 5745 5743 5741 5739 5736 5734 5731 5728 5725 5722 5719 5715 5712 5709 5706 5703 5700
5729 5730 5732 5734 5736 5738 5739 5741 5742 5743 5743 5744 5744 5744 5744 5745 5745 5745 5744 5744 5744 5744 5744 5743 5742 5742 5740 5739 5737 5735 5732 5730 5728 5725 5722 5719 5716 5713 5710 5707 5703 5700 5697 5693
5720 5722 5724 5726 5728 5730 5732 5733 5734 5735 5736 5737 5737 5738 5737 5738 5738 5738 5738 5738 5738 5737 5737 5736 5736 5735 5734 5732 5730 5728 5726 5724 5721 5719 5716 5713 5710 5707 5704 5701 5697 5694 5690 5687